sat.trackr.live / text

‹ back to catalog

STARLINK-33990

NORAD 63840 · 2025-093E

PAYLOAD ACTIVE UNKNOWN

§ Identity

Operator
Country
US
Launch date
2025-05-07
Launch site
AFETR
Launch vehicle
Mass (kg)
RCS (m²)

Purposes: comms

External: N2YO · Heavens-Above · Gunter

§ Orbital elements

Epoch: 2026-09-19T04:11:15.606816Z

Period
94.27 min
Inclination
43.0035°
Eccentricity
0.0001094
Mean motion
15.27593978 rev/d
Perigee alt
482.3 km
Apogee alt
483.8 km
Semi-major
6,861.1 km
B*
5.2875e-4
RAAN
65.1500°
Arg perigee
268.3845°
Mean anomaly
91.6882°
Rev number
7,734

§ Raw data

STARLINK-339901 63840U 25093E   26262.17448619  .00014322  00000+0  52875-3 0  99992 63840  43.0035  65.1500 0001094 268.3845  91.6882 15.27593978 77346

JSON: /api/v1/satellites/63840 · /tle

For live sub-satellite position, see the globe view (requires WebGL).

§ Visibility from observer

Set your observer location to see the next 7 days of passes ≥ 10°. The values pass through the URL so the page stays shareable.

No JS? Fill the form by hand. The geolocation button needs JavaScript.